Regional Weather Roundup
Issued by NWS

Home | Current Version | Previous Version | Text Only | Print | Product List | Glossary On
Versions: 1 2 3 4 5 6 7 8 9 10 11 12 13 14 15 16 17 18 19 20 21 22 23 24 25 26 27 28
000
ASUS45 KREV 250110
RWRNV
NEVADA REGIONAL WEATHER ROUNDUP
NATIONAL WEATHER SERVICE RENO NV
600 PM PDT WED AUG 24 2016

NOTE: "FAIR" INDICATES FEW OR NO CLOUDS BELOW 12,000 FEET WITH NO
SIGNIFICANT WEATHER AND/OR OBSTRUCTIONS TO VISIBILITY.

NVZ001-003-004-250200-
WESTERN NEVADA

CITY           SKY/WX    TMP DP  RH WIND       PRES   REMARKS
RENO           MOSUNNY   87  19   8 W16       30.07F
CARSON CITY    FAIR      84  14   7 W17G23    30.12S
MINDEN         FAIR      84  21  10 W13       30.12F
PYRAMID LAKE     N/A     88 N/A N/A E2          N/A
FALLON         MOSUNNY   91  20   7 NE13      30.01F
LOVELOCK       SUNNY     90  19   7 NW9       30.02F
HAWTHORNE        N/A     91   3   3 CALM      30.01F
$$

NVZ002-CAZ072-073-250200-
NORTHERN AND CENTRAL SIERRA

CITY           SKY/WX    TMP DP  RH WIND       PRES   REMARKS
S. LAKE TAHOE  SUNNY     74  16  11 S10       30.24F
SQUAW VLY 8000 NOT AVBL
SUSANVILLE     SUNNY     88  30  12 SW12      30.05F
MAMMOTH LAKES  FAIR      77  27  16 W15G22    30.27F
BRIDGEPORT       N/A     76   9   7 W10G23    30.26S
$$

NVZ030-031-036-250200-
NORTHERN NEVADA

CITY           SKY/WX    TMP DP  RH WIND       PRES   REMARKS
ELKO           SUNNY     81   7   6 SW14      30.10F
WINNEMUCCA     SUNNY     85  15   7 NW7       30.06F
WENDOVER       SUNNY     82  21  10 SE7       30.07S
$$

NVZ035-037-250200-
CENTRAL NEVADA

CITY           SKY/WX    TMP DP  RH WIND       PRES   REMARKS
ELY            SUNNY     80  16   9 N9        30.15F
EUREKA           N/A     82  16   8 NW12G21   30.14F
$$

NVZ013-014-250200-
SOUTH CENTRAL NEVADA

CITY           SKY/WX    TMP DP  RH WIND       PRES   REMARKS
TONOPAH        SUNNY     87  17   7 NW12      30.11F
$$

NVZ017-020-022-250200-
SOUTHERN NEVADA

CITY           SKY/WX    TMP DP  RH WIND       PRES   REMARKS
LAS VEGAS      MOSUNNY  101  38  11 N6        29.82F
N. LAS VEGAS   MOSUNNY   99  43  14 E8        29.84F
NELLIS AFB     SUNNY     99  47  16 NE2       29.82F
HENDERSON      SUNNY     99  41  13 SW13      29.89F
MERCURY        SUNNY     96  35  11 SW9       29.94F
$$




USA.gov is the U.S. government's official web portal to all federal, state and local government web resources and services.